www.pogodaiklimat.ru

Погода и климат >> Архив погоды >> Россия >> Томская область >> Напас


ПОГОДА в Напасе

  • Прогноз погоды в Напасе
  • Монитор погоды в Напасе

АРХИВ ПОГОДЫ в Напасе

Время (UTC), дата Ветер
(напр.,м/с)
 
Видим.   Явления Облачность Т
(С)
Тd
(С)
f
(%)
Тe
(С)
Тes
(С)
Комфортность P
(гПа)
Po
(гПа)
Тmin
(С)
Tmax
(С)
R
(мм)
R24
(мм)
S
(см)
00 20.03 Ю 1 4000 м дымка ясно -13.5 -13.5 100 -16 -16 1032.1 1021.8 -15.5 63
03 20.03 ЮВ 1 4000 м дымка 8/3 600 м
[Sc Ac trans]
+9.5 -10.7 23 +10 +11 1032.2 1022.0 -15.7
06 20.03 Ю 2 20 км 8/8 1000 м
[Sc]
-1.7 -6.2 71 -5 -4 1031.3 1021.5
09 20.03 Ю 3 20 км 3/1 1000 м
[Sc Ac trans Ci sp]
+2.6 -5.5 55 -1 +2 1029.6 1019.9
12 20.03 Ю 2 20 км 10/0
[Ac trans Ci sp]
+1.7 -6.8 53 -1 -1 1028.7 1019.0 +2.9
15 20.03 Ю 2 20 км 4/0
[Ac trans]
-1.8 -6.6 70 -5 -5 1027.4 1017.6
18 20.03 Ю 2 20 км 10/0
[Cs]
-2.8 -7.5 70 -7 -7 1025.9 1016.1
21 20.03 Ю 1 20 км 10/0
[Cs]
-3.6 -8.8 67 -6 -6 1028.5 1015.6
00 21.03 ЮЗ 2 20 км 10/0
[Ac lent Ci fib]
-5.0 -11.3 61 -9 -9 1024.5 1014.6 -5.0 63
03 21.03 Ю 3 20 км 10/0
[Ci sp]
-2.6 -12.1 48 -7 -6 1023.9 1014.0 -6.8
06 21.03 ЮЗ 3 20 км 10/0
[Ci fib]
+0.7 -12.6 36 -3 +1 1022.4 1012.7
09 21.03 Ю 5-11
{14}
20 км 10/0
[Ci fib]
+4.0 -10.8 33 0 +2 1020.8 1011.4
12 21.03 ЮЗ 4-10
{14}
20 км 10/0
[Ci fib]
+4.4 -7.9 40 +1 +1 1019.9 1010.4 +5.1
15 21.03 ЮЗ 3 20 км 10/0
[Ci sp]
+2.8 -7.3 47 -1 -1 1018.7 1009.1
18 21.03 ЮЗ 3
{11}
20 км 10/0
[Ci sp]
-0.0 -7.7 56 -4 -4 1018.0 1008.3
21 21.03 Ю 3 20 км 10/0
[Ac und Ci sp]
-1.6 -7.6 64 -6 -6 1016.2 1006.6
00 22.03 Ю 3 20 км 10/0
[Ac und Ci sp]
-2.0 -7.4 67 -7 -7 1015.0 1005.4 -2.0 62
03 22.03 ЮЗ 3 4000 м слаб. ливневой снег 10/10 300 м
[Cb cap]
-2.0 -5.5 77 -7 -7 1015.3 1005.7 -2.4
06 22.03 З 3 20 км {ливн. осадки} 10/10 600 м
[Cb calv]
-0.3 -4.0 76 -5 -5 1016.0 1006.4
09 22.03 З 3 20 км 10/10
[Sc]
+0.4 -5.8 63 -4 -4 1017.7 1008.0
12 22.03 З 1 20 км 10/10 600 м
[Sc]
+0.1 -4.7 70 -2 -2 1018.9 1009.2 +0.6 0.0
15 22.03 Ю 1 20 км 10/10 600 м
[Sc]
-0.3 -4.4 74 -2 -2 1019.8 1010.1
18 22.03 Ю 1 20 км 10/1 600 м
[Sc Ac und Ci fib]
-4.1 -5.9 87 -6 -6 1020.1 1010.2
21 22.03 штиль 0 4000 м дымка 4/0
[Ci sp]
-6.8 -8.0 91 -8 -8 1020.4 1010.5
00 23.03 штиль 0 4000 м дымка 10/6 600 м
[Sc Ci fib]
-9.6 -10.8 91 -10 -10 1020.7 1010.6 -9.8 62
03 23.03 штиль 0 4000 м дымка 10/10 700 м
[Sc]
-4.0 -5.2 91 -5 -5 1021.0 1011.2 -10.5
06 23.03 В 1 20 км 10/10 800 м
[Sc]
+0.2 -1.5 88 -2 -2 1020.8 1011.1
09 23.03 ЮВ 2 20 км 6/3 600 м
[Sc Ci sp]
+2.6 -5.5 55 0 +3 1019.5 1009.9
12 23.03 ЮВ 1 20 км 10/0
[Ac lent Ci sp]
+1.3 +0.2 92 -1 -0 1018.8 1009.2 +2.6
15 23.03 штиль 0 20 км 10/0
[Ac lent Ci sp]
-3.9 -7.5 76 -5 -5 1018.7 1008.8
18 23.03 ЮВ 1 20 км 10/0
[Ac lent Ci sp]
-5.0 -7.1 85 -7 -7 1018.2 1008.3
21 23.03 СЗ 1 4000 м дымка 10/0
[Ac lent Ci sp]
-6.7 -7.9 91 -9 -9 1017.5 1007.6
00 24.03 СЗ 1 4000 м дымка 10/0
[Ac lent Ci sp]
-9.4 -10.6 91 -12 -12 1017.7 1007.6 -9.4 62
03 24.03 штиль 0 20 км 10/0
[Ac lent Ci fib]
-4.8 -9.2 71 -6 -3 1017.9 1008.0 -10.7
06 24.03 Ю 1 20 км 10/0
[Ac lent Ci fib]
+1.9 -4.0 65 +1 +5 1017.8 1008.2
09 24.03 Ю 1 20 км 10/4 600 м
[Cb cap Ac und Ci sp]
+2.6 -5.5 55 +2 +3 1018.1 1008.5
12 24.03 З 1 4000 м слаб. ливневой снег 10/6 240 м
[Cb cap Ac und Ci sp]
+1.4 -3.4 70 -0 0 1018.6 1009.0 +2.6 0.0
15 24.03 штиль 0 4000 м слаб. ливневой снег 10/10 240 м
[Cb cap]
-1.6 -3.8 85 -3 -3 1019.2 1009.5
18 24.03 З 1 20 км {ливн. осадки} 10/10 540 м
[Cb cap]
-2.1 -3.7 89 -4 -4 1019.8 1010.1
21 24.03 З 1 20 км дымка 10/4 600 м
[Cb cap Ac und Ci sp]
-2.1 -3.4 91 -4 -4 1021.1 1011.4
00 25.03 З 1 4000 м слаб. ливневой снег 10/10 210 м
[Cb cap]
-2.3 -2.9 96 -5 -5 1022.8 1013.0 -3.5 0.0 62
03 25.03 З 1 4000 м дымка {ливн. осадки} 10/10 90 м
[Cb cap]
-1.6 -3.2 89 -4 -4 1025.0 1015.3
06 25.03 Ю 1 20 км 8/8 750 м
[Cb cap Ac trans]
+0.8 -3.4 73 -1 +1 1026.4 1016.7
09 25.03 штиль 0 20 км 9/9 960 м
[Cb cap]
+2.4 -5.0 58 +2 +2 1027.2 1017.5
12 25.03 ЮЗ 1 20 км 9/9 540 м
[Cb cap]
+2.3 -6.0 54 +1 +1 1018.1 1018.4 +2.9 0.0
15 25.03 штиль 0 20 км 6/0
[Ac lent Ci fib]
-2.5 -6.3 75 -3 -3 1029.2 1019.3
18 25.03 Ю 1 20 км 10/0
[Ac trans Ci fib]
-6.2 -8.5 84 -9 -9 1029.7 1019.7
21 25.03 Ю 1 20 км 10/0
[Ac trans Ci fib]
-7.9 -9.7 87 -10 -10 1030.4 1020.3
00 26.03 Ю 1 20 км 1/0
[Ac trans]
-8.1 -9.5 90 -11 -11 1031.4 1021.3 -8.1 62
03 26.03 Ю 1 20 км ясно -4.1 -8.3 73 -6 -3 1031.8 1021.8 -8.5
06 26.03 Ю 3 20 км 1/0
[Ac lent]
+3.2 -7.2 46 0 +5 1030.8 1021.2
09 26.03 Ю 5
{10}
20 км ясно +4.1 -5.7 49 -0 +2 1028.9 1019.3
12 26.03 ЮВ 4 20 км ясно +3.6 -5.4 52 -0 -0 1027.3 1017.7 +4.4
15 26.03 Ю 2 20 км ясно -0.2 -6.6 62 -3 -3 1027.7 1016.0
18 26.03 Ю 2 20 км ясно -2.0 -8.6 61 -5 -5 1024.5 1017.4

 

Местоположение метеостанции Напас (Томская область, Россия): широта 59.85 долгота 81.95 высота над уровнем моря 76 м.

В архиве по умолчанию представлена погода в Напасе за последнюю неделю. Архивные данные за месяц целиком и за предыдущие месяцы, начиная с января 2011 года, Вы можете получить, выбрав интересующий диапазон дат из раскрывающегося списка и нажав кнопку "Ввод!".


*Определитесь, кто Вы:
робот инопланетянин человек

Внимание! Время в таблицах - всемирное. Для получения местного времени необходимо прибавить поправку, которая равна 7 ч.

Смотрите также архив погоды в соседних городах и на ближайших метеорологических станциях:

Погода в Березовке (Томская область, Россия) (69 км)
Погода в Каргасоке (Томская область, Россия) (107 км)
Погода в Ванжиль-Кынаке (Томская область, Россия) (131 км)
Погода в Парабели (Томская область, Россия) (131 км)
Погода в Прохоркино (Томская область, Россия) (144 км)
Погода в Ларьяке (Ханты-Мансийский АО, Россия) (167 км)
Погода в Колпашево (Томская область, Россия) (180 км)
Погода в Корликах (Ханты-Мансийский АО, Россия) (189 км)
Погода в Старице (Томская область, Россия) (205 км)
Погода в Ваховске (Ханты-Мансийский АО, Россия) (213 км)

Пояснения к столбцам:

Ветер - указаны скорость ветра в м/с - средняя за 10 мин, порывы в срок и между сроками (в фигурных скобках) и направление, откуда дует ветер: С - северный, СВ - северо-восточный, В - восточный, ЮВ - юго-восточный, Ю - южный, ЮЗ - юго-западный, З - западный, СЗ - северо-западный.
Видимость - горизонтальная дальность видимости в метрах или километрах. При видимости от 1 до 10 км при отсутствии осадков обычно наблюдается дымка, при ухудшении видимости до 1 км и менее - туман. В сухую погоду видимость может ухудшаться дымом, пылью или мглою.
Явления - указаны атмосферные явления, наблюдавшиеся в срок или в последний час перед сроком; фигурными скобками обозначены явления, наблюдавшиеся между сроками (за 1-3 часа до срока); квадратными скобками обозначены град или гололедные отложения с указанием их диаметра в мм.
Облачность - указаны через наклонную черту общая и нижняя облачность в баллах и высота нижней границы облаков в метрах; квадратными скобками обозначены формы облаков: Ci - перистые, Cs - перисто-слоистые, Cc - перисто-кучевые, Ac - высококучевые, As - высокослоистые, Sc - слоисто-кучевые, Ns - слоисто-дождевые, Cu - кучевые, Cb - кучево-дождевые. Подробнее классификацию облаков см. в Атласе облаков (PDF).
T - Температура воздуха - температура, измеренная на высоте 2 м над землей.
Td - Температура точки росы - температура, при понижении до которой содержащийся в воздухе водяной пар достигнет насыщения.
f - Относительная влажность воздуха - влажноcть воздуха, измеренная на высоте 2 м над землей.
Te - Эффективная температура - температура, которую ощущает одетый по сезону человек в тени. Характеристика душности погоды. При расчете учитывается влияние влажности воздуха и скорости ветра на теплоощущения человека.
Tes - Эффективная температура на солнце - температура, которую ощущает человек, с поправкой на солнечный нагрев. Характеристика знойности погоды. Зависит от высоты солнца над горизонтом, облачности и скорости ветра. Ночью, в пасмурную погоду, а также при ветре 12 м/с и более поправка равна нулю.
P - Атмосферное давление - приведенное к уровню моря атмосферное давление.
Po - Атмосферное давление - измеренное на уровне метеостанции атмосферное давление.
Tmin - Минимальная температура - минимум температуры воздуха на высоте 2 м над землей.
Tmax - Максимальная температура - максимум температуры воздуха на высоте 2 м над землей.
R - Количество осадков - Количество выпавших осадков за период времени, мм. При наведении курсора мыши на число - период времени, за который выпало указанное количество осадков.
R24 - Количество осадков - Количество выпавших осадков за 24 часа, мм.
S - Снежный покров - Высота снежного покрова, см. При наведении курсора мыши на число - состояние снежного покрова и степень покрытия местности в баллах.